STARLINK-32825 (62825 NORAD) Tracking and Keplerian Element Data

This shows tracking and keplerian element data for the satellite.

Feedback or suggestion? Click here.




ElementValue
Catalog62825
NameSTARLINK-32825
Epoch Orbit295
Epoch Day35.25001157
Epoch Year2025
RAAN11.436
Inclination53.1475
Eccentricity9.36E-05
Argument of Perigee95.0027
Mean Anonmoly113.0921
Mean Motion15.86102535
Decay Rate-0.0112453
L11 62825U 25018V 25035.25001157 -.01124530 00000+0 -50512-2 0 9997
L22 62825 53.1475 11.4360 0000936 95.0027 113.0921 15.86102535 2955



Live tracking and technical data element details for STARLINK-32825 (NORAD 62825). STARLINK-32825 can be tracked NOW for your location showing map with azimuth and elevation plus other details from your city location.







IsCatalogInMostPopularTable: catalog: 62825, numindb: 4
Update: records affected: 1



GetName: 62825 STARLINK-32825

Hit Count: updated at: Fri, 14 Feb 2025 15:13:55 GMT